{"data":{"norad_id":67142,"epoch":"2026-09-20T14:27:59.975136Z","epoch_age_seconds":97173,"freshness":"FRESH","line1":"1 67142U 25301K   26263.60277749  .00001602  00000+0  23904-3 0  9991","line2":"2 67142  51.9023 266.3574 0000573  54.4697 305.6319 14.79935402 42833","mean_motion":14.79935402,"eccentricity":5.73e-5,"inclination_deg":51.9023,"raan_deg":266.3574,"arg_perigee_deg":54.4697,"mean_anomaly_deg":305.6319,"bstar":0.00023904,"rev_number":4283,"period_min":97.301544246727,"perigee_km":629.12650745929,"apogee_km":629.92958587364,"semimajor_km":7007.6650466665,"source":"CELESTRAK","updated_at":"2026-09-21T09:00:16.456289Z"}}